Location: Huppendorf
(49.9333°N, 11.1500°E)
Time: 00:11:36
(UTC+00:00)

STARLINK-1010 - Pass Details

Date: 27 February 2020
Orbit: 563 x 565 km, 53.0° (Epoch: 04 April)

Event Time Altitude Azimuth Distance (km) Brightness Sun altitude
Rises 18:01:31 0° 278° (W) 2,741 9.2 -11.7°
Reaches altitude 10° 18:03:48 10° 283° (WNW) 1,844 7.7 -12.1°
Maximum altitude 18:07:56 55° 2° (N) 673 4.0 -12.8°
Enters shadow 18:10:39 20° 75° (ENE) 1,315 5.0 -13.2°
